Weather History for KPSP - June, 2013

Change the Weather History Date:

Friday, June 14, 2013

  Actual Average Record
Temperature  
Mean Temperature 88 °F 86 °F  
Max Temperature 105 °F 101 °F 119 °F (1966)
Min Temperature 71 °F 71 °F 50 °F (1943)
Degree Days  
Heating Degree Days 0 0  
Month to date heating degree days 0 0  
Since 1 June heating degree days 0 0  
Since 1 July heating degree days 760 874  
Cooling Degree Days 23 21  
Month to date cooling degree days 337 273  
Year to date cooling degree days 1379 1032  
Since 1 June cooling degree days 337 273  
Growing Degree Days 38 (Base 50)    
Moisture  
Dew Point 40 °F    
Average Humidity 27    
Maximum Humidity 49    
Minimum Humidity 5    
Precipitation  
Precipitation 0.00 in 0.00 in 0.00 in (2015)
Month to date precipitation 0.00 0.04  
Year to date precipitation 0.97 2.92  
Since 1 July precipitation 2.19  
Snow  
Snow 0.00 in - - ()
Month to date snowfall 0.0  
Year to date snowfall 0.0  
Since 1 June snowfall  
Since 1 July snowfall 0.0  
Snow Depth 0.00 in    
Sea Level Pressure  
Sea Level Pressure 29.71 in    
Wind  
Wind Speed 4 mph (NNE)    
Max Wind Speed 14 mph    
Max Gust Speed 22 mph    
Visibility 10 miles    
Events      
T = Trace of Precipitation, MM = Missing Value Source: NWS Daily Summary

Daily Weather History Graph

Daily Weather History Graph

Search for Another Location

Airport or City:

Trip Planner

Search our weather history database for the weather conditions in past years. The results will help you decide how hot, cold, wet, or windy it might be!

Date:

Astronomy

Jun. 14, 2013 Rise Set
Actual Time 5:34 AM PDT 7:58 PM PDT
Civil Twilight 5:05 AM PDT 8:27 PM PDT
Nautical Twilight 4:29 AM PDT 9:03 PM PDT
Astronomical Twilight 3:50 AM PDT 9:42 PM PDT
Moon 11:00 AM PDT (6/14) 11:51 PM PDT (6/14)
Length of Visible Light 15h 21m
Length of Day
14h 23m
Waxing Crescent, 31% of the Moon is Illuminated
Jun 14
Waxing Crescent
Jun 16
First Quarter
Jun 23
Full
Jun 29
Last Quarter
Jul 8
New

Hourly Weather History & Observations

Time (PDT) Temp. Dew Point Humidity Pressure Visibility Wind Dir Wind Speed Gust Speed Precip Events Conditions
12:53 AM 80.1 °F 46.0 °F 30% 29.72 in 10.0 mi Calm Calm - N/A   Clear
1:53 AM 80.1 °F 46.0 °F 30% 29.71 in 10.0 mi SSE 3.5 mph - N/A   Clear
2:53 AM 78.1 °F 48.0 °F 35% 29.72 in 10.0 mi Calm Calm - N/A   Clear
3:53 AM 75.9 °F 48.9 °F 38% 29.73 in 10.0 mi Calm Calm - N/A   Clear
4:53 AM 73.9 °F 51.1 °F 45% 29.73 in 10.0 mi Calm Calm - N/A   Clear
5:53 AM 72.0 °F 52.0 °F 49% 29.75 in 10.0 mi Calm Calm - N/A   Clear
6:53 AM 77.0 °F 48.9 °F 37% 29.76 in 10.0 mi Calm Calm - N/A   Clear
7:53 AM 81.0 °F 45.0 °F 28% 29.78 in 10.0 mi SSE 5.8 mph - N/A   Clear
8:53 AM 86.0 °F 42.1 °F 21% 29.79 in 10.0 mi SSE 8.1 mph - N/A   Clear
9:53 AM 89.1 °F 43.0 °F 20% 29.78 in 10.0 mi ENE 3.5 mph - N/A   Clear
10:53 AM 91.9 °F 43.0 °F 18% 29.78 in 10.0 mi Variable 3.5 mph - N/A   Partly Cloudy
11:53 AM 95.0 °F 41.0 °F 15% 29.76 in 10.0 mi East 4.6 mph - N/A   Clear
12:53 PM 97.0 °F 35.1 °F 11% 29.75 in 10.0 mi East 6.9 mph - N/A   Clear
1:53 PM 100.0 °F 27.0 °F 8% 29.72 in 10.0 mi ESE 4.6 mph - N/A   Clear
2:53 PM 102.0 °F 23.0 °F 6% 29.69 in 10.0 mi Variable 5.8 mph - N/A   Clear
3:53 PM 102.0 °F 25.0 °F 7% 29.68 in 10.0 mi East 9.2 mph 17.3 mph N/A   Clear
4:53 PM 104.0 °F 19.0 °F 5% 29.65 in 10.0 mi NNW 6.9 mph 17.3 mph N/A   Clear
5:53 PM 102.9 °F 23.0 °F 6% 29.64 in 10.0 mi NW 15.0 mph - N/A   Clear
6:53 PM 100.0 °F 33.1 °F 10% 29.63 in 10.0 mi NNW 19.6 mph 24.2 mph N/A   Clear
7:53 PM 93.9 °F 42.1 °F 17% 29.65 in 10.0 mi NW 18.4 mph 28.8 mph N/A   Clear
8:53 PM 90.0 °F 43.0 °F 19% 29.66 in 10.0 mi NW 21.9 mph - N/A   Clear
9:53 PM 88.0 °F 44.1 °F 22% 29.67 in 10.0 mi NW 16.1 mph 20.7 mph N/A   Clear
10:53 PM 84.9 °F 44.1 °F 24% 29.68 in 10.0 mi West 6.9 mph - N/A   Clear
11:53 PM 82.9 °F 43.0 °F 24% 29.68 in 10.0 mi WNW 5.8 mph 16.1 mph N/A   Clear